Retour au catalogue

THOR BURNER 2 R/B

ActifSSO
NORAD 4954·ROCKET BODY·🇺🇸 United States

Lancé Feb 17, 1971 depuis Vandenberg Space Force Base

Loading…

Prochains Passages

TLE

Source: Space-Track
1 04954U 71012B   26229.35846796  .00000090  00000-0  41906-4 0  9995
2 04954  98.3207  81.5117 0037436  49.3836 311.0599 14.39790509904673

Suivez THOR BURNER 2 R/B en temps réel avec AllMySat

Download on the App Store